Wind_Speed
39 36 34 33 33 33 26 26 22 18 31 35 41 33 25 27 39 38 31 28 21 19 18 19 19 15 11 9 6 4 4 5 6 6 4 3 3 3 6 9 10 13 15 15 15 15 13 12 12
39 37 37 38 36 33 26 24 13 28 42 46 46 47 34 33 40 39 29 25 18 21 21 20 19 18 13 11 6 5 5 5 6 4 3 3 2 3 6 9 10 12 14 16 16 14 12 11 12
43 40 39 41 39 36 26 14 21 36 46 51 48 39 42 41 43 42 32 30 17 25 24 21 22 21 17 13 8 7 7 7 6 6 3 1 2 4 7 9 10 11 13 14 13 12 11 11 12
37 41 43 42 43 37 32 29 37 30 39 50 48 53 42 56 51 43 31 27 25 28 27 23 23 23 20 17 13 11 11 10 9 7 4 1 3 6 8 8 9 10 11 12 12 12 13 14 14
39 40 43 47 45 38 41 46 52 42 39 40 42 39 49 59 57 40 30 32 30 29 28 26 23 23 20 20 16 15 14 12 11 9 5 1 3 6 8 8 9 10 11 11 11 12 14 15 16
36 40 45 46 46 41 38 48 51 50 48 43 36 37 41 55 56 43 34 31 33 31 31 29 27 25 25 21 18 16 17 15 13 11 7 4 5 5 6 7 8 9 10 10 11 13 14 15 16
34 36 41 46 48 41 29 45 51 45 43 42 41 39 41 59 51 44 40 35 37 35 33 33 30 28 27 24 21 19 19 18 16 14 12 10 9 8 8 7 7 9 11 12 12 13 15 16 16
35 34 35 42 49 50 22 34 40 39 47 41 43 42 42 59 56 42 45 39 41 40 36 38 35 33 31 28 25 26 22 18 18 18 16 14 12 11 10 10 9 9 12 13 13 13 15 14 16
34 36 34 34 42 36 31 26 31 42 34 49 50 49 46 60 53 44 45 45 45 44 39 40 38 34 34 29 30 28 26 22 19 20 20 18 16 14 13 13 13 14 15 16 16 16 15 15 16
37 38 33 28 32 39 29 30 25 45 56 54 42 64 52 46 44 39 43 50 49 49 47 42 39 37 35 35 34 32 31 26 22 20 20 20 19 18 17 17 18 17 18 15 17 17 20 16 17
37 36 32 30 27 32 41 35 30 41 44 53 51 50 58 51 62 41 44 51 54 53 51 48 46 43 43 40 37 36 32 29 26 23 22 23 22 22 21 21 22 21 20 16 18 19 23 19 20
40 38 36 34 33 28 42 39 36 38 45 29 33 46 55 61 68 39 45 52 55 56 55 53 49 48 46 45 43 40 35 31 30 28 27 26 25 25 24 24 24 25 24 21 18 20 23 20 20
41 40 40 39 38 37 36 46 50 42 51 31 39 42 48 56 50 55 44 50 49 59 57 56 51 52 50 47 50 48 40 39 34 32 32 30 29 28 28 26 26 28 26 24 23 21 22 20 25
41 43 43 44 45 45 45 47 45 49 59 54 42 56 53 43 45 49 56 51 51 57 61 63 53 54 53 54 50 47 48 41 36 36 35 34 33 33 31 29 27 28 25 23 24 25 23 30 35
38 42 44 41 42 45 45 45 44 40 47 51 58 59 63 59 50 50 52 59 52 54 62 62 64 56 57 58 60 55 60 42 52 43 40 38 37 36 32 34 32 28 28 28 23 25 28 27 30
38 38 40 38 41 42 47 46 44 41 42 43 49 51 52 62 50 47 54 55 60 56 61 66 69 62 62 68 68 64 60 48 54 44 44 43 46 40 37 37 37 33 32 29 26 32 35 30 26
37 38 38 35 35 37 44 49 43 41 41 43 49 50 47 49 49 43 53 58 55 58 66 69 68 70 63 77 62 58 60 52 51 47 51 49 49 48 43 44 42 38 32 22 22 20 22 22 26
35 29 29 32 27 36 38 46 41 39 42 48 43 44 44 49 47 51 52 58 59 50 65 69 70 71 72 70 64 64 58 57 51 50 56 54 50 51 44 47 45 41 36 27 20 18 18 17 28
33 30 35 22 19 33 45 41 40 40 42 46 43 44 43 48 47 50 56 58 53 48 63 71 72 73 73 69 73 71 77 76 56 55 58 60 49 54 51 50 51 34 31 25 22 17 16 21 25
38 40 41 40 32 41 40 47 40 39 42 42 42 42 40 43 45 49 53 56 56 48 57 68 71 74 76 75 76 75 78 70 67 61 64 56 44 55 63 48 47 39 33 30 29 20 16 22 24
30 30 31 39 39 35 49 52 46 40 42 43 43 43 41 40 42 46 50 53 54 50 42 71 70 75 79 81 79 81 78 71 70 70 72 66 54 64 61 50 43 40 37 27 37 29 26 24 22
31 23 22 28 34 42 38 43 34 31 37 44 46 45 44 42 43 46 48 47 49 45 48 50 71 76 84 85 73 74 75 73 66 72 76 68 70 54 63 56 45 35 43 33 37 29 19 24 26
24 23 27 36 39 38 38 38 34 28 31 32 35 36 42 46 47 47 46 45 47 49 45 48 47 61 92 86 86 86 82 79 76 65 75 64 67 61 62 64 64 59 34 35 47 27 20 24 26
21 35 37 32 34 36 30 31 31 23 19 21 32 34 36 37 41 45 47 46 47 48 45 48 49 44 68 89 77 88 89 84 78 75 73 80 62 58 59 65 68 58 44 40 40 35 24 19 27
30 35 31 27 24 33 20 26 27 17 28 23 38 39 35 34 34 36 39 40 43 45 46 48 48 51 47 56 72 72 69 81 88 76 77 69 61 76 68 59 58 49 41 36 45 50 35 27 30
30 31 28 29 29 29 28 31 19 29 23 37 44 43 35 35 35 37 39 40 40 41 41 41 45 48 51 51 48 50 66 73 60 63 72 72 66 60 50 59 50 53 51 42 46 46 28 34 33
30 36 27 35 34 38 35 20 26 21 37 43 36 38 42 41 40 40 41 42 43 44 44 41 41 43 47 49 52 54 54 50 51 51 56 54 60 64 56 57 48 44 28 43 43 44 39 38 39
38 29 28 34 36 35 42 33 24 29 32 37 36 39 36 40 41 42 44 45 45 47 47 47 45 46 48 49 50 52 54 54 50 49 49 58 63 61 60 54 60 50 36 40 42 42 42 44 41
30 28 29 35 37 31 23 25 45 39 38 37 37 30 36 32 37 44 45 47 47 47 48 49 51 49 48 53 54 55 55 55 54 55 54 50 49 51 55 73 58 45 40 40 42 46 46 38 38
26 27 30 35 32 37 39 30 20 18 22 26 31 22 28 34 39 43 47 47 47 45 48 50 51 53 53 53 53 57 58 59 56 55 55 54 52 52 49 49 50 55 49 46 47 51 41 35 37
Wind_Direction
234 234 239 236 233 233 215 211 185 223 219 202 209 209 188 204 225 218 235 212 224 237 234 232 234 223 214 210 228 244 255 261 266 259 232 151 133 92 51 42 41 36 33 30 30 25 24 22 18
234 233 237 238 233 233 219 214 206 247 228 214 202 209 196 207 231 230 227 236 210 236 232 222 231 224 205 213 216 226 242 249 250 236 198 140 133 29 36 34 36 37 28 29 32 30 25 24 17
235 232 233 240 235 230 212 213 204 230 239 219 219 219 207 226 223 229 227 251 234 246 234 231 225 226 216 213 220 236 234 241 240 236 217 108 21 9 16 31 30 28 26 31 36 32 22 17 14
236 235 232 236 240 231 214 222 211 215 226 230 219 221 217 224 229 230 220 244 239 243 237 236 226 226 226 222 225 235 246 249 246 242 258 353 16 11 1 6 11 17 20 18 25 30 25 15 15
245 238 234 232 235 237 221 212 210 220 225 230 224 223 216 225 232 233 234 235 240 227 233 235 227 233 231 225 223 233 238 250 263 265 267 297 357 358 357 357 358 360 2 357 5 5 6 3 6
245 243 238 233 234 235 235 234 232 220 234 240 241 228 231 237 234 225 229 227 235 222 228 232 231 236 244 231 229 236 242 245 265 273 270 277 304 321 329 328 350 344 344 349 353 347 350 347 355
248 247 242 238 233 235 250 256 231 236 233 241 243 240 231 242 234 230 228 223 227 224 219 229 229 233 242 249 241 244 250 252 257 266 267 273 280 292 302 310 327 331 337 342 341 339 340 343 352
251 250 246 238 232 231 215 267 267 257 225 237 237 236 228 238 236 224 228 221 221 229 219 224 227 233 240 250 249 256 253 251 254 263 269 270 273 281 291 302 304 311 318 322 329 335 341 345 353
249 250 250 248 234 225 230 247 283 285 263 243 239 231 230 244 241 228 228 225 222 226 226 219 226 229 234 242 257 248 250 254 257 262 269 269 268 274 279 285 292 304 309 316 324 331 333 340 351
245 250 253 254 243 224 211 227 247 275 274 263 264 249 231 247 248 232 228 227 220 223 224 215 224 228 233 242 250 246 255 250 255 260 265 265 266 274 280 286 292 298 304 310 315 328 333 332 341
244 249 254 252 245 230 212 222 245 247 256 266 262 262 239 226 238 218 223 223 223 225 226 223 225 231 235 241 248 247 252 255 250 255 259 262 264 272 280 288 288 292 298 297 307 318 335 330 335
243 245 245 245 241 228 216 216 226 252 246 261 267 253 250 245 242 226 222 224 221 223 229 228 220 225 232 236 242 244 250 244 239 246 253 258 261 265 272 281 286 289 297 299 300 315 325 329 333
241 241 243 242 243 237 219 216 224 232 237 236 250 240 252 249 248 239 228 228 223 223 231 233 224 226 231 236 234 232 238 242 232 241 250 254 256 260 265 271 276 283 289 298 301 301 307 316 318
239 240 241 241 240 240 235 242 234 240 239 234 240 255 249 256 255 248 236 228 222 225 227 236 229 230 232 234 245 248 247 233 228 236 245 249 249 254 258 262 269 279 282 289 290 299 313 323 333
245 245 245 245 249 249 247 244 249 243 241 242 246 256 259 251 249 254 251 235 224 224 226 232 237 226 233 236 238 248 229 239 254 229 234 244 245 249 252 259 263 272 281 281 297 307 306 326 329
247 250 250 248 249 248 254 245 248 250 251 246 247 249 251 250 246 249 252 244 233 222 226 229 233 234 228 226 237 237 229 228 225 231 231 239 244 243 248 254 261 264 269 273 294 299 303 316 313
248 250 253 253 254 256 251 247 248 251 254 250 246 247 256 258 248 247 250 246 242 230 223 228 228 234 235 234 227 233 228 241 237 223 233 240 241 245 248 250 256 258 261 281 299 292 309 308 309
252 263 264 261 253 258 252 253 250 247 251 251 253 254 254 256 248 241 248 245 241 240 221 229 229 230 236 241 242 245 231 239 234 230 240 238 241 247 253 247 255 262 262 264 285 287 301 298 310
248 227 229 215 235 261 260 249 249 245 246 252 249 250 253 255 254 243 243 248 240 243 225 226 232 229 231 236 244 244 249 242 223 233 238 234 246 243 250 245 250 263 266 287 259 296 305 305 303
240 244 242 228 217 225 244 259 252 248 249 252 256 253 250 252 254 251 243 247 250 247 232 227 231 236 234 235 236 236 243 234 221 225 240 237 242 241 242 256 253 253 262 260 251 262 293 304 302
258 254 248 238 238 245 253 258 260 257 252 250 249 252 251 250 252 253 252 249 248 243 251 223 232 234 238 236 237 243 244 236 248 244 243 239 245 251 244 255 244 250 251 255 263 253 294 316 304
257 258 257 252 245 245 249 263 260 253 255 249 247 247 249 248 249 251 254 255 255 246 246 243 230 235 234 238 243 238 242 247 247 248 236 238 251 246 246 245 248 260 249 243 268 273 301 307 299
257 251 239 248 248 254 256 259 260 256 254 261 251 246 247 246 247 250 252 254 253 251 251 245 244 247 242 235 235 241 241 243 247 248 251 253 246 249 244 252 258 256 272 254 267 254 280 286 296
249 250 249 250 257 256 261 262 258 256 252 244 256 250 244 245 245 247 248 249 251 251 248 248 244 261 243 241 236 237 238 242 239 244 250 243 247 248 253 258 261 244 248 260 240 267 241 270 304
272 254 264 262 266 264 283 278 279 254 239 221 244 255 251 247 247 247 247 245 249 250 248 245 244 245 256 252 252 240 244 246 244 245 245 252 254 259 261 260 268 245 254 249 261 268 250 281 302
253 267 243 244 237 239 248 254 226 220 245 230 248 255 257 254 251 251 253 250 247 250 252 248 249 248 250 255 260 263 240 237 240 245 244 246 251 253 256 262 269 269 270 279 286 299 301 291 292
260 262 277 248 243 237 223 223 215 230 227 244 255 258 256 255 255 254 251 253 256 256 255 255 252 251 251 252 253 255 257 263 265 251 241 245 249 248 249 251 256 260 260 271 278 295 291 287 296
252 254 257 255 250 248 235 229 240 238 259 258 252 258 257 256 254 254 253 254 255 255 257 257 253 252 254 254 254 252 254 255 257 254 259 253 249 252 250 256 251 254 256 270 279 283 280 288 286
258 250 262 251 246 256 254 245 239 248 250 253 258 231 247 252 255 254 255 255 256 258 259 259 259 253 249 253 253 254 252 252 249 250 248 251 251 254 260 253 260 251 259 266 274 276 281 285 276
253 244 252 252 254 250 248 246 245 236 237 248 231 230 246 258 261 257 255 256 257 258 261 263 263 263 262 255 254 253 254 254 252 252 250 247 247 249 248 258 261 260 260 259 271 272 273 271 271
Height
5851 5853 5857 5860 5862 5863 5869 5876 5880 5889 5890 5887 5885 5893 5893 5890 5886 5882 5890 5885 5898 5898 5900 5902 5902 5903 5904 5905 5906 5907 5906 5907 5906 5906 5905 5904 5904 5903 5902 5901 5900 5899 5898 5896 5895 5895 5894 5894 5894
5846 5849 5851 5853 5856 5859 5869 5874 5879 5880 5873 5878 5878 5886 5892 5886 5876 5876 5888 5888 5896 5897 5899 5899 5901 5901 5902 5903 5904 5905 5905 5906 5905 5905 5904 5903 5903 5903 5901 5900 5899 5898 5898 5897 5895 5895 5896 5894 5893
5840 5843 5845 5847 5849 5854 5865 5872 5868 5861 5863 5873 5877 5885 5888 5873 5877 5878 5889 5888 5898 5895 5897 5899 5898 5900 5900 5901 5903 5903 5904 5904 5904 5904 5903 5902 5902 5901 5901 5898 5898 5897 5897 5896 5895 5895 5895 5894 5893
5832 5837 5839 5839 5844 5851 5858 5857 5858 5851 5852 5860 5872 5876 5884 5869 5870 5878 5891 5889 5893 5892 5895 5897 5897 5897 5898 5899 5900 5901 5902 5903 5902 5902 5902 5901 5901 5901 5900 5899 5898 5897 5896 5896 5894 5894 5894 5894 5892
5824 5828 5831 5832 5838 5844 5844 5843 5844 5847 5847 5852 5863 5872 5872 5861 5865 5881 5886 5887 5887 5891 5892 5894 5895 5896 5896 5897 5897 5899 5900 5901 5902 5901 5900 5900 5900 5900 5900 5899 5898 5897 5896 5895 5894 5893 5893 5893 5891
5816 5819 5822 5827 5832 5837 5840 5839 5840 5847 5846 5852 5858 5865 5865 5856 5865 5878 5881 5883 5883 5886 5888 5890 5892 5894 5894 5894 5894 5896 5897 5899 5899 5900 5900 5899 5899 5899 5898 5898 5896 5896 5895 5894 5893 5894 5892 5891 5890
5809 5811 5814 5820 5825 5830 5836 5832 5837 5840 5845 5847 5852 5855 5857 5843 5858 5873 5876 5879 5878 5880 5885 5885 5888 5890 5892 5893 5893 5894 5895 5897 5897 5898 5898 5897 5898 5898 5897 5896 5895 5895 5895 5894 5894 5893 5892 5891 5889
5802 5803 5806 5810 5816 5823 5832 5826 5826 5830 5832 5837 5839 5846 5845 5835 5847 5864 5867 5873 5874 5874 5879 5879 5883 5886 5888 5889 5890 5892 5892 5894 5894 5895 5895 5895 5896 5896 5895 5895 5894 5894 5894 5893 5892 5892 5891 5890 5889
5794 5795 5800 5803 5807 5816 5827 5828 5820 5816 5826 5832 5827 5835 5837 5828 5841 5858 5860 5865 5868 5869 5873 5877 5878 5881 5883 5885 5887 5888 5889 5891 5892 5893 5893 5893 5893 5893 5892 5892 5893 5893 5893 5892 5892 5891 5889 5889 5887
5786 5788 5795 5799 5800 5805 5815 5823 5830 5814 5812 5819 5824 5824 5829 5832 5837 5850 5854 5856 5859 5861 5863 5872 5872 5875 5878 5880 5883 5884 5886 5887 5889 5889 5890 5890 5890 5890 5890 5890 5891 5891 5890 5890 5890 5889 5888 5887 5886
5780 5783 5787 5789 5792 5796 5802 5810 5817 5809 5807 5808 5816 5816 5820 5820 5815 5837 5840 5845 5851 5854 5854 5861 5865 5869 5872 5875 5878 5880 5882 5884 5886 5886 5886 5886 5887 5887 5887 5887 5888 5887 5887 5886 5886 5886 5887 5884 5883
5773 5777 5779 5782 5784 5787 5793 5800 5803 5803 5797 5801 5800 5806 5809 5813 5817 5829 5831 5831 5841 5848 5848 5848 5858 5861 5865 5867 5871 5874 5877 5879 5881 5882 5882 5883 5884 5884 5884 5884 5884 5884 5884 5884 5883 5882 5883 5881 5880
5765 5770 5772 5774 5775 5778 5782 5784 5787 5790 5793 5794 5790 5793 5797 5807 5813 5820 5824 5826 5837 5843 5841 5840 5852 5854 5858 5861 5864 5866 5869 5873 5875 5876 5878 5878 5879 5880 5880 5880 5881 5880 5880 5880 5880 5881 5882 5881 5879
5758 5761 5763 5764 5765 5767 5770 5771 5778 5786 5785 5785 5782 5781 5794 5799 5804 5807 5812 5816 5826 5832 5837 5833 5842 5848 5852 5852 5855 5857 5862 5866 5868 5871 5873 5873 5874 5875 5876 5875 5877 5876 5877 5878 5877 5876 5875 5875 5874
5751 5751 5753 5758 5760 5760 5762 5764 5768 5775 5776 5776 5782 5782 5782 5789 5795 5795 5800 5804 5811 5822 5827 5831 5831 5842 5843 5843 5844 5847 5851 5856 5860 5862 5865 5867 5868 5869 5870 5871 5872 5872 5872 5872 5873 5872 5873 5871 5869
5744 5745 5746 5752 5751 5753 5753 5757 5762 5764 5766 5770 5771 5771 5771 5770 5784 5786 5785 5792 5798 5812 5816 5821 5823 5829 5835 5827 5831 5840 5839 5845 5852 5855 5856 5861 5861 5862 5865 5865 5867 5868 5868 5868 5870 5868 5868 5868 5866
5736 5738 5739 5743 5744 5745 5743 5747 5754 5755 5755 5756 5756 5759 5763 5765 5770 5777 5770 5777 5788 5796 5804 5806 5811 5816 5823 5814 5816 5829 5833 5835 5841 5847 5849 5853 5856 5857 5859 5859 5860 5862 5865 5867 5866 5865 5865 5865 5863
5731 5733 5734 5734 5739 5734 5735 5737 5743 5746 5745 5744 5751 5752 5755 5754 5761 5765 5759 5763 5776 5786 5793 5795 5800 5806 5811 5809 5811 5817 5824 5828 5832 5838 5841 5846 5849 5851 5851 5854 5854 5856 5860 5860 5860 5860 5860 5859 5858
5722 5724 5725 5728 5735 5727 5724 5728 5733 5736 5736 5736 5741 5744 5746 5746 5748 5753 5751 5755 5766 5776 5780 5785 5790 5795 5800 5804 5804 5810 5816 5821 5822 5828 5834 5837 5839 5842 5843 5845 5845 5849 5852 5852 5853 5854 5855 5856 5853
5710 5711 5716 5719 5718 5719 5717 5717 5724 5726 5727 5729 5732 5734 5736 5737 5739 5740 5744 5746 5756 5765 5767 5773 5779 5782 5788 5795 5797 5799 5804 5806 5807 5816 5822 5827 5829 5833 5834 5838 5840 5843 5842 5844 5844 5843 5846 5848 5846
5704 5705 5707 5709 5711 5711 5708 5708 5713 5718 5717 5719 5723 5724 5726 5728 5729 5730 5733 5738 5743 5751 5755 5760 5766 5772 5774 5781 5784 5788 5793 5798 5803 5810 5815 5816 5818 5824 5825 5830 5830 5833 5834 5835 5837 5835 5836 5840 5839
5697 5698 5699 5699 5700 5699 5701 5698 5703 5706 5706 5707 5711 5714 5717 5720 5720 5721 5723 5729 5731 5737 5742 5747 5753 5758 5761 5762 5765 5772 5778 5787 5795 5802 5800 5803 5806 5811 5813 5819 5820 5823 5826 5830 5832 5828 5826 5831 5831
5690 5690 5690 5687 5688 5690 5694 5691 5697 5699 5699 5698 5700 5703 5707 5710 5712 5713 5715 5719 5721 5724 5730 5737 5738 5741 5742 5750 5754 5759 5769 5775 5781 5787 5786 5793 5796 5798 5802 5807 5813 5814 5816 5822 5821 5820 5814 5823 5827
5682 5680 5679 5680 5680 5680 5688 5686 5688 5691 5694 5695 5690 5693 5697 5700 5702 5703 5706 5710 5710 5713 5718 5721 5726 5728 5729 5733 5741 5747 5754 5762 5764 5771 5778 5780 5781 5788 5794 5794 5798 5804 5809 5809 5812 5806 5797 5816 5818
5673 5672 5672 5674 5675 5675 5682 5680 5683 5686 5686 5689 5683 5684 5688 5690 5692 5694 5695 5699 5700 5703 5707 5711 5714 5716 5720 5722 5725 5731 5736 5746 5753 5759 5766 5768 5772 5778 5787 5783 5787 5792 5797 5804 5805 5785 5770 5807 5810
5666 5664 5665 5664 5666 5668 5671 5670 5679 5682 5677 5679 5675 5675 5680 5681 5682 5684 5684 5687 5691 5692 5694 5699 5703 5708 5710 5711 5713 5716 5722 5733 5735 5742 5750 5757 5765 5773 5778 5777 5779 5781 5788 5789 5792 5786 5786 5798 5801
5658 5656 5662 5657 5659 5658 5662 5665 5666 5670 5669 5668 5673 5672 5671 5672 5673 5674 5675 5676 5679 5681 5684 5689 5692 5694 5696 5699 5701 5705 5711 5716 5719 5725 5733 5742 5751 5759 5765 5770 5773 5764 5771 5781 5788 5782 5786 5789 5793
5650 5653 5652 5651 5650 5650 5654 5655 5659 5659 5660 5659 5661 5659 5661 5662 5663 5663 5665 5667 5669 5670 5673 5676 5680 5682 5684 5686 5691 5696 5700 5704 5710 5717 5723 5728 5736 5741 5750 5755 5763 5765 5765 5771 5777 5781 5785 5785 5788
5645 5641 5643 5644 5642 5643 5644 5647 5646 5652 5650 5652 5650 5647 5649 5651 5653 5654 5654 5655 5658 5661 5662 5664 5666 5672 5676 5677 5680 5683 5688 5694 5699 5705 5712 5718 5723 5729 5735 5741 5746 5756 5760 5764 5768 5773 5776 5779 5782
5632 5635 5636 5634 5635 5636 5638 5641 5641 5642 5643 5643 5642 5639 5640 5643 5644 5644 5644 5644 5647 5649 5652 5654 5655 5657 5659 5663 5666 5671 5674 5677 5684 5690 5697 5704 5712 5720 5726 5731 5734 5742 5751 5759 5762 5765 5770 5772 5774